IK7IZV Weather Reports


time (UTC)temp
F
wind
direction
speed
knots
gust
knots
rain 1hr
in
rain 24hr
in
rain mn
in
humidity
%
barometer
mb
20260504214539 64 157 0.0 0.9 0.00 0.00 0.00 59 1019.4
20260504213034 64 210 0.9 3.5 0.00 0.00 0.00 59 1019.3
20260504211533 65 246 2.6 5.2 0.00 0.00 0.00 58 1019.3
20260504210032 65 245 2.6 6.1 0.00 0.00 0.00 57 1019.3
20260504204611 65 238 2.6 6.1 0.00 0.00 0.00 55 1019.3
20260504203032 66 205 0.9 4.3 0.00 0.00 0.00 53 1019.4
20260504201531 67 236 0.9 4.3 0.00 0.00 0.00 49 1019.3
20260504200035 68 229 0.9 4.3 0.00 0.00 0.00 46 1019.2
20260504194531 68 193 2.6 5.2 0.00 0.00 0.00 44 1019.1
20260504193028 69 169 2.6 7.0 0.00 0.00 0.00 43 1019.1
20260504191529 69 148 0.9 4.3 0.00 0.00 0.00 42 1018.9
20260504190033 69 179 2.6 7.0 0.00 0.00 0.00 41 1018.9
20260504184526 70 197 2.6 7.0 0.00 0.00 0.00 39 1018.9
20260504183028 70 182 0.9 4.3 0.00 0.00 0.00 39 1018.8
20260504181525 70 179 1.7 5.2 0.00 0.00 0.00 39 1018.7
20260504180025 70 167 0.9 5.2 0.00 0.00 0.00 39 1018.7
20260504174524 70 170 2.6 5.2 0.00 0.00 0.00 40 1018.7
20260504173023 70 193 2.6 8.7 0.00 0.00 0.00 39 1018.7
20260504171536 70 178 4.3 7.8 0.00 0.00 0.00 40 1018.6
20260504081541 65 76 4.3 7.8 0.00 0.00 0.00 59 1021.3
20260504050011 59 262 1.7 4.3 0.00 0.00 0.00 66 1020.2
20260504044510 58 230 2.6 6.1 0.00 0.00 0.00 67 1020.0
20260504043004 57 252 1.7 6.1 0.00 0.00 0.00 70 1019.9
20260504041505 55 284 0.9 6.1 0.00 0.00 0.00 72 1019.8
20260504040003 54 233 1.7 5.2 0.00 0.00 0.00 74 1019.8
20260504034503 54 241 1.7 5.2 0.00 0.00 0.00 75 1019.8
20260504033059 54 264 0.9 5.2 0.00 0.00 0.00 74 1019.7
20260504031559 54 226 0.9 4.3 0.00 0.00 0.00 74 1019.6
20260504030058 54 212 1.7 5.2 0.00 0.00 0.00 73 1019.6
20260504024558 54 260 1.7 5.2 0.00 0.00 0.00 73 1019.6
20260504023056 53 262 2.6 5.2 0.00 0.00 0.00 73 1019.7
20260504021554 53 201 1.7 7.0 0.00 0.00 0.00 73 1019.7
20260504020053 54 285 2.6 5.2 0.00 0.00 0.00 72 1019.6
20260504014602 54 275 2.6 6.1 0.00 0.00 0.00 71 1019.7
20260504013052 55 238 1.7 4.3 0.00 0.00 0.00 70 1019.7
20260504011552 55 263 0.9 4.3 0.00 0.00 0.00 71 1019.7
20260504010051 55 288 2.6 5.2 0.00 0.00 0.00 70 1019.7
20260504004547 54 287 0.9 4.3 0.00 0.00 0.00 71 1019.7
20260504003050 55 156 1.7 5.2 0.00 0.00 0.00 70 1019.7
20260504001544 55 264 1.7 4.3 0.00 0.00 0.00 70 1019.8
20260504000043 55 273 0.9 4.3 0.00 0.00 0.00 69 1019.8
20260503234546 55 198 0.0 3.5 0.00 0.00 0.00 69 1019.8
20260503233036 56 267 0.9 3.5 0.00 0.00 0.00 69 1020.0
20260503231536 56 254 0.0 4.3 0.00 0.00 0.00 69 1020.0
20260503230040 56 267 0.0 4.3 0.00 0.00 0.00 68 1020.1
20260503224534 56 257 0.9 3.5 0.00 0.00 0.00 68 1020.0
20260503223033 56 204 0.0 2.6 0.00 0.00 0.00 68 1020.1
20260503221530 57 239 0.0 3.5 0.00 0.00 0.00 67 1020.1
20260503220041 57 260 1.7 6.1 0.00 0.00 0.00 68 1020.0